GFSNIL_850_spd_057.txt.gz
Wind_Speed
25 29 33 36 39 40 40 40 39 39 41 41 39 38 37 37 36 36 38 39 38 37
27 32 36 39 39 40 39 40 42 42 41 40 41 42 43 43 43 41 40 40 39 37
33 37 38 39 39 39 42 43 43 43 43 43 40 38 37 36 35 34 34 33 32 32
35 36 36 37 39 41 42 42 44 43 41 39 39 34 33 33 34 34 34 32 32 34
36 37 38 40 39 40 42 43 42 40 37 36 37 34 33 35 37 38 38 36 35 36
36 38 39 39 40 42 43 43 39 35 35 35 39 36 36 38 40 39 38 37 36 36
37 38 39 42 44 43 43 39 36 35 35 38 39 38 38 39 38 36 36 34 34 32
38 40 43 44 43 43 38 36 40 38 37 37 38 37 36 36 37 38 39 38 38 37
39 41 41 42 41 37 35 40 37 37 37 36 34 36 36 37 40 40 40 41 38 35
37 40 41 40 36 35 39 38 39 36 35 36 35 36 36 38 39 40 40 39 37 37
37 40 40 37 35 37 38 39 39 38 35 36 36 36 33 34 36 33 34 35 34 33
38 40 37 35 35 36 37 38 36 33 34 34 36 32 31 32 33 32 32 31 32 29
38 36 34 34 36 36 35 34 31 30 32 30 33 32 37 34 34 34 28 28 26 21
37 31 32 34 34 33 30 29 29 32 31 35 34 40 36 37 37 33 27 26 23 19

GFSNIL_850_spd_060.txt.gz
Wind_Speed
21 24 28 33 37 38 40 40 40 41 41 40 39 39 39 40 40 39 39 39 39 40
23 29 34 36 37 39 40 41 42 41 41 41 41 40 38 38 38 36 34 34 33 32
30 34 35 37 39 39 40 40 41 42 43 44 42 39 36 36 35 34 32 31 31 31
32 34 36 38 39 39 41 42 44 43 44 42 38 35 35 33 34 33 33 31 33 33
35 36 38 39 39 41 43 43 43 43 40 36 34 34 34 35 36 35 33 36 37 36
35 37 38 40 42 42 43 44 43 39 35 35 34 34 35 37 38 37 36 36 36 35
34 36 39 40 41 42 43 42 39 36 37 37 36 35 34 33 36 37 37 37 35 34
35 38 39 40 41 42 39 35 35 35 37 35 34 34 34 35 39 42 43 43 41 40
36 38 38 40 41 40 36 35 34 34 34 35 35 32 34 35 37 41 43 44 43 42
36 38 39 40 40 38 35 34 33 34 34 33 34 34 32 34 36 37 38 40 43 37
36 39 40 41 37 36 31 32 36 35 33 33 33 31 32 33 36 38 36 36 36 35
36 39 40 36 33 32 33 34 32 32 32 34 33 35 33 36 37 42 43 43 33 31
36 38 37 31 33 36 32 32 31 33 31 32 35 35 38 37 41 44 43 38 34 23
36 36 30 33 34 34 30 31 32 30 32 34 35 35 35 37 43 47 45 38 29 20

GFSNIL_850_spd_063.txt.gz
Wind_Speed
18 19 22 27 31 34 36 38 38 38 38 40 40 41 40 40 39 38 35 34 32 31
18 22 27 30 33 35 36 37 38 39 41 41 41 40 39 37 35 32 30 30 28 27
22 26 30 32 34 35 37 38 40 41 41 41 41 38 34 32 31 29 25 25 25 25
25 29 32 34 35 36 39 39 40 41 42 41 37 32 31 30 30 29 27 26 27 29
30 33 34 35 36 37 38 39 40 40 39 36 34 31 29 30 29 28 27 26 28 30
32 32 33 35 36 36 38 39 39 37 35 35 31 29 30 29 29 28 29 31 32 31
31 32 34 35 36 36 37 39 37 34 34 30 29 31 33 33 30 30 32 34 35 36
31 33 34 35 36 37 38 36 34 32 28 27 31 31 31 32 35 38 39 40 41 41
32 33 35 36 37 38 36 33 30 28 29 31 31 31 30 31 34 36 41 42 42 41
31 34 35 37 39 36 32 32 28 28 29 30 31 31 31 33 35 36 40 41 39 40
32 35 37 38 36 32 31 31 30 32 32 33 32 31 33 31 35 36 40 42 43 43
33 36 37 37 33 30 33 33 32 32 32 29 31 29 29 33 37 41 44 44 43 46
34 35 36 33 30 32 32 31 31 30 26 28 29 28 32 33 38 40 40 40 40 36
34 36 32 28 30 30 31 29 29 27 28 28 29 28 28 30 36 37 37 32 28 19

GFSNIL_850_spd_069.txt.gz
Wind_Speed
13 13 11 12 13 15 17 19 21 24 23 23 24 25 26 27 28 27 27 29 29 30
10 11 12 14 14 16 18 21 22 24 25 25 25 25 26 29 27 27 27 28 27 27
10 12 13 15 17 19 22 22 24 25 25 26 26 26 26 29 28 27 27 28 27 28
11 13 15 17 19 20 22 24 25 26 27 27 28 27 27 27 27 28 28 28 29 32
14 15 17 19 21 22 24 24 26 26 27 28 28 28 27 27 27 29 30 30 30 30
15 17 18 21 22 23 24 25 26 26 27 28 28 27 26 27 29 29 30 32 33 32
17 19 21 21 22 24 24 26 26 26 27 27 27 27 28 30 30 30 32 34 35 37
19 20 21 22 23 24 25 26 26 27 26 26 27 29 28 29 33 35 37 38 38 39
20 21 22 23 24 25 26 26 26 26 28 31 31 28 28 30 34 35 36 38 37 37
20 22 23 24 25 26 27 27 26 27 30 31 33 29 29 29 32 33 33 34 34 35
21 23 24 25 26 26 26 25 26 29 29 32 34 29 28 29 32 30 30 29 31 34
22 24 24 26 27 26 25 28 30 29 29 33 31 26 27 26 30 28 31 33 29 36
22 23 25 26 26 24 27 30 30 31 31 27 26 26 23 26 29 28 31 34 35 39
22 24 24 24 23 28 29 28 30 29 26 26 25 25 28 25 25 30 32 35 36 39

GFSNIL_850_spd_072.txt.gz
Wind_Speed
18 22 24 18 19 21 23 23 24 26 29 30 31 30 29 30 31 31 31 31 31 31
13 12 14 14 20 22 22 24 28 29 31 30 30 29 30 31 32 31 31 31 31 30
16 17 17 17 17 19 24 25 26 28 29 29 30 31 31 32 32 31 31 30 30 30
13 14 17 20 20 20 22 25 28 29 31 31 32 32 32 31 30 30 30 30 29 31
13 16 17 18 20 24 27 27 29 30 31 32 31 30 30 31 32 31 30 29 31 33
16 17 19 21 26 26 28 29 30 30 30 31 32 33 30 28 29 28 30 33 34 34
17 18 22 27 26 28 30 30 30 31 31 31 31 28 31 34 35 35 33 33 34 36
19 24 26 27 29 30 30 29 30 31 30 30 30 35 37 30 30 31 35 36 37 35
22 22 25 29 30 30 30 31 31 29 29 30 33 35 28 29 32 34 35 35 35 34
21 24 27 29 29 29 31 30 30 27 32 36 29 30 29 30 32 33 33 33 30 30
23 28 28 28 29 30 30 30 28 34 30 31 31 28 28 28 30 29 30 30 28 29
28 28 28 28 29 31 31 26 33 32 31 31 30 28 28 27 28 31 29 24 29 31
27 26 26 28 30 29 25 31 30 31 29 29 27 27 24 26 27 29 24 29 34 33
25 24 26 28 27 26 32 33 28 30 28 27 27 26 26 24 26 26 30 33 36 34

GFSNIL_850_spd_075.txt.gz
Wind_Speed
17 18 19 21 23 23 23 24 26 27 27 29 29 31 31 30 30 30 30 31 31 32
20 20 19 18 17 18 23 25 25 27 29 30 32 32 31 32 32 32 32 33 32 31
17 16 17 18 19 19 20 22 24 25 27 31 32 33 33 33 33 33 33 32 31 31
17 18 18 19 21 22 22 24 27 31 32 33 33 32 32 32 32 32 33 32 31 32
17 17 17 19 21 23 26 30 30 31 32 32 32 31 32 33 32 30 29 28 27 28
19 16 17 20 24 28 29 29 30 30 30 31 31 31 30 31 31 31 33 36 36 37
16 16 19 24 27 27 29 31 32 30 30 31 29 29 29 29 35 39 31 30 29 32
16 21 24 23 26 30 31 31 29 31 29 30 31 31 32 33 36 34 33 34 33 33
20 22 23 26 30 31 30 29 30 30 31 31 34 38 29 26 30 31 35 33 32 31
20 22 26 31 30 30 28 29 30 28 28 34 35 29 26 27 28 32 31 31 29 28
22 26 31 30 28 27 29 30 28 28 33 35 29 27 26 27 30 30 28 29 29 28
26 30 29 27 26 28 30 29 28 34 34 29 31 28 26 26 29 28 25 26 20 26
28 27 25 25 29 26 28 30 35 30 26 27 28 24 24 25 28 27 25 26 28 30
26 25 24 28 25 27 33 37 27 25 27 25 23 24 24 25 24 24 29 22 30 33